Location: ??? ????
(38.0580°N, 23.1536°E)
Time: 23:55:06
(UTC+00:00)

Cosmos 2058 Rocket - Pass Details

Date: 13 December 2025
Orbit: 603 x 633 km, 82.5° (Epoch: 14 January)

Event Time Altitude Azimuth Distance (km) Brightness Sun altitude
Rises 16:37:15 0° 192° (SSW) 2,908 6.9 -17.0°
Reaches altitude 10° 16:39:29 10° 195° (SSW) 2,007 6.1 -17.4°
Maximum altitude 16:43:55 68° 278° (W) 685 3.4 -18.2°
Drops below altitude 10° 16:48:23 10° 2° (N) 2,022 5.5 -19.1°
Enters shadow 16:49:32 - 4° (N) 2,480 6.0 -19.3°
